Preview of NWS' New Version of Forecast
This preview is not operational and should not be used for support decisions.

Regional Weather Roundup (RWR)

Issued by National Weather Service (NWS)

                            
000
ASUS43 KBIS 181410
RWRND 

NORTH DAKOTA REGIONAL WEATHER ROUNDUP
NATIONAL WEATHER SERVICE BISMARCK ND
900 AM CDT THU JUL 18 2019

NOTE: "FAIR" INDICATES FEW OR NO CLOUDS BELOW 12,000 FEET WITH NO
SIGNIFICANT WEATHER AND/OR OBSTRUCTIONS TO VISIBILITY.


NDZ001>003-009>011-017-181500-
NORTHWEST NORTH DAKOTA
  
CITY           SKY/WX    TMP DP  RH WIND       PRES   REMARKS
WILLISTON      SUNNY     68  53  58 W8        29.66S                  
MINOT          SUNNY     73  59  61 W18G28    29.59F                  
MINOT AFB      SUNNY     72  60  67 W10       29.57F                  
$$
 
NDZ018>021-031>035-040>046-181500-
SOUTHWEST NORTH DAKOTA
  
CITY           SKY/WX    TMP DP  RH WIND       PRES   REMARKS
BISMARCK       CLOUDY    66  64  93 W3        29.69S                  
DICKINSON      MOSUNNY   68  59  73 W9        29.71S                  
GARRISON         N/A     69  60  73 W14G21    29.64S                  
HETTINGER ARPT PTSUNNY   68  60  75 CALM      29.75S                  
$$
 
NDZ004>008-012>016-024-026-027-054-181500-
NORTHEAST NORTH DAKOTA
  
CITY           SKY/WX    TMP DP  RH WIND       PRES   REMARKS
GRAND FORKS    PTSUNNY   71  63  75 SW10      29.60F                  
GRND FRKS AFB  PTSUNNY   72  64  77 W8        29.60F                  
DEVILS LAKE    MOSUNNY   68  61  78 SW13      29.62S                  
$$
 
NDZ022-023-025-028>030-036>039-047>053-181500-
SOUTHEAST NORTH DAKOTA
  
CITY           SKY/WX    TMP DP  RH WIND       PRES   REMARKS
FARGO          MOSUNNY   71  64  78 SW5       29.64F                  
JAMESTOWN      SUNNY     69  65  86 SW5       29.65S                  
$$